[[{"header":{"parameterUnit":"m.s-1","parameterCategory":1,"la1":30.2991,"la2":30.254,"lo1":-89.0895,"lo2":-89.0444,"dy":0.0017,"dx":0.0017,"nx":28,"ny":28,"refTime":"2025-07-31T09:00:00:Z","depth":0,"parameterNumber":2,"parameterNumberName":"U-component_of_WINDS"},"data":[0,0,0,0,0,0,0,0,0,0,0,0,0,0,0,0,0,0,0,0,0,0,0,0,0,0,0,0,0,0,0,0,0,0,0,0,0,0,0,0,0,0,0,0,0,0,0,0,0,0,0,0,0,0,0,0,0,0,1.3463,1.3465,0,1.3643,1.3645,1.3647,1.3722,1.3722,1.3722,1.3721,1.3906,1.3911,1.3917,0,0,0,0,0,0,0,0,0,0,0,0,0,1.3186,1.3191,1.3463,1.3465,1.3468,1.3642,1.3645,1.3647,1.3723,1.3722,1.3722,1.3721,1.3905,1.3911,1.3917,0,0,0,0,0,0,0,0,0,0,0,0,0,1.333,1.3192,1.3463,1.3526,1.3534,1.3642,1.3645,1.3648,1.3723,1.3722,1.3722,1.3721,1.3903,1.391,1.3918,1.3977,0,0,1.3942,1.3945,0,0,0,0,0,0,0,0,1.3322,1.334,1.3515,1.3522,1.3531,1.366,1.3615,1.3758,1.3723,1.3651,1.3721,1.3721,1.3825,1.3839,1.3874,1.3985,1.3993,1.3943,1.3947,1.3951,1.3953,0,0,0,0,0,0,0,1.3312,1.3333,1.3534,1.3517,1.3527,1.3546,1.3566,1.3642,1.3738,1.3657,1.3663,1.3683,1.3829,1.3866,1.3879,1.3996,1.3942,1.3949,1.3954,1.3957,1.4164,1.4165,0,0,0,0,0,0,1.3291,1.3324,1.3528,1.354,1.3423,1.3551,1.3573,1.3619,1.3738,1.3756,1.3683,1.3686,1.3853,1.3869,1.3885,1.3962,1.3951,1.3958,1.3963,1.4163,1.4164,1.4165,0,0,0,0,0,0,1.3285,1.3309,1.3521,1.3433,1.3462,1.3557,1.3607,1.3622,1.366,1.3758,1.3775,1.3704,1.3853,1.3874,1.3953,1.3969,1.3962,1.3969,1.4162,1.4163,1.4165,1.4114,0,0,0,0,0,0,1.3277,1.3306,1.3329,1.3433,1.3466,1.3586,1.3608,1.3626,1.3673,1.3678,1.3781,1.3798,1.3854,1.3941,1.3961,1.398,1.3975,1.4161,1.4163,1.4164,1.4115,1.4114,1.4113,0,0,0,0,0,1.3266,1.3308,1.333,1.3354,1.3497,1.3586,1.3605,1.3669,1.3674,1.3698,1.3761,1.3795,1.3964,1.3948,1.3972,1.3993,1.4161,1.4162,1.4164,1.4116,1.4114,1.4113,0,0,0,0,0,0,1.3204,1.3323,1.3349,1.3425,1.3495,1.3599,1.3631,1.3665,1.3735,1.3737,1.3814,1.3836,1.3909,1.3959,1.3939,1.4056,1.4065,1.4071,1.402,1.402,1.4018,1.4005,1.3981,0,0,0,0,0,1.3199,1.3261,1.3362,1.342,1.3454,1.3536,1.3577,1.362,1.3696,1.3726,1.3795,1.3867,1.3937,1.3981,1.405,1.4123,1.4146,1.4149,1.4147,1.4146,1.4151,1.4192,1.4195,1.4171,1.4171,1.4171,0,0,1.3189,1.3262,1.3297,1.3409,1.3468,1.3531,1.3561,1.3626,1.3673,1.3736,1.3815,1.3867,1.3953,1.4028,1.4065,1.4073,1.4162,1.4148,1.4146,1.4152,1.4194,1.4196,1.4198,1.4172,1.4172,1.4172,0,0,1.3204,1.3266,1.3321,1.3379,1.3468,1.3523,1.3535,1.3634,1.3672,1.3751,1.38,1.3857,1.3975,1.4034,1.408,1.4116,1.415,1.4136,1.413,1.417,1.4171,1.4173,1.4186,1.419,1.4141,1.4141,1.414,0,1.3181,1.3278,1.3344,1.3407,1.3455,1.3514,1.357,1.3624,1.3731,1.3762,1.3769,1.3918,1.398,1.407,1.4078,1.4113,1.413,1.4125,1.4166,1.4168,1.4171,1.4184,1.4189,1.4138,1.4139,1.4139,1.4139,0,1.3245,1.3311,1.3345,1.3446,1.3498,1.3557,1.3632,1.3676,1.3715,1.3768,1.3848,1.3925,1.401,1.4035,1.4073,1.413,1.4132,1.4151,1.4162,1.417,1.4184,1.4189,1.4135,1.4136,1.4137,1.4137,0,0,1.3226,1.3363,1.3374,1.3421,1.3523,1.3576,1.3637,1.372,1.3757,1.3828,1.3882,1.398,1.3998,1.4049,1.4095,1.4129,1.4153,1.4145,1.4148,1.4143,1.422,1.4205,1.421,1.4175,1.4177,1.4178,1.4213,0,1.3255,1.3368,1.3429,1.3516,1.3577,1.3634,1.3687,1.3756,1.3807,1.3867,1.3924,1.3993,1.4012,1.4043,1.408,1.4142,1.4169,1.414,1.4226,1.4228,1.4203,1.4217,1.4202,1.4231,1.4219,1.422,1.422,0,1.3304,1.3374,1.3467,1.3561,1.359,1.3636,1.3718,1.3774,1.3853,1.3888,1.3944,1.3989,1.4056,1.4061,1.4154,1.4133,1.4172,1.4207,1.421,1.4221,1.4225,1.4228,1.4243,1.4247,1.4229,1.4229,1.4228,0,1.328,1.3398,1.3469,1.3507,1.3619,1.3651,1.3699,1.3777,1.3823,1.3894,1.3924,1.4002,1.4044,1.4103,1.4168,1.4166,1.4255,1.4265,1.4286,1.4284,1.4302,1.43,1.4323,1.4326,1.4326,1.4326,1.4326,0,1.3306,1.3361,1.346,1.3503,1.3566,1.3636,1.3696,1.3749,1.3817,1.3872,1.3925,1.3976,1.4057,1.4118,1.4168,1.4238,1.4257,1.4287,1.43,1.4282,1.4278,1.4309,1.4309,1.4328,1.4327,1.4327,1.4327,0,1.3291,1.336,1.3441,1.354,1.3566,1.3608,1.3693,1.3737,1.3791,1.3859,1.3879,1.3964,1.4038,1.4108,1.4206,1.424,1.431,1.4327,1.4283,1.429,1.4307,1.4304,1.435,1.436,1.4356,1.4356,1.4356,0,1.3303,1.3346,1.345,1.349,1.3537,1.3602,1.3649,1.3719,1.3766,1.3858,1.3891,1.3968,1.4034,1.4149,1.4219,1.4295,1.4314,1.4325,1.4326,1.4307,1.4315,1.4311,1.4316,1.4324,1.4323,1.4323,1.4323,0,1.3317,1.3349,1.3415,1.3492,1.3546,1.3611,1.3677,1.3707,1.379,1.3839,1.3915,1.3966,1.4066,1.4142,1.4226,1.4276,1.4313,1.4322,1.4331,1.4313,1.4286,1.4301,1.4279,1.4321,1.4321,1.4321,1.4321,1.4321,1.3316,1.3357,1.3437,1.3508,1.3565,1.3625,1.3672,1.3731,1.3795,1.3882,1.392,1.3996,1.4073,1.4189,1.4238,1.4299,1.4308,1.432,1.4324,1.4326,1.4322,1.4276,1.4315,1.4315,1.4315,1.4315,1.4315,0,1.3333,1.3387,1.3452,1.3542,1.3598,1.3628,1.3703,1.3747,1.3814,1.3882,1.3946,1.4032,1.4106,1.4182,1.426,1.4295,1.4314,1.4313,1.4311,1.4322,1.431,1.4295,1.4296,1.4296,1.4296,1.4296,1.4296,1.4296,1.3349,1.3419,1.346,1.3559,1.3613,1.3688,1.3728,1.3784,1.3839,1.3933,1.3995,1.4044,1.4116,1.4199,1.4268,1.4289,1.4315,1.4309,1.4334,1.4322,1.4323,1.4324,1.431,1.4314,1.4314,1.4342,1.4342,1.4342]},{"header":{"parameterUnit":"m.s-1","parameterCategory":1,"la1":30.2991,"la2":30.254,"lo1":-89.0895,"lo2":-89.0444,"dy":0.0017,"dx":0.0017,"nx":28,"ny":28,"refTime":"2025-07-31T09:00:00:Z","depth":0,"parameterNumber":3,"parameterNumberName":"V-component_of_WINDS"},"data":[0,0,0,0,0,0,0,0,0,0,0,0,0,0,0,0,0,0,0,0,0,0,0,0,0,0,0,0,0,0,0,0,0,0,0,0,0,0,0,0,0,0,0,0,0,0,0,0,0,0,0,0,0,0,0,0,0,0,4.8474,4.8473,0,4.8459,4.8459,4.8459,4.8447,4.8447,4.8447,4.8447,4.843,4.8429,4.8429,0,0,0,0,0,0,0,0,0,0,0,0,0,4.849,4.849,4.8474,4.8473,4.8473,4.8459,4.8459,4.8459,4.8447,4.8447,4.8447,4.8447,4.843,4.8429,4.8429,0,0,0,0,0,0,0,0,0,0,0,0,0,4.848,4.849,4.8474,4.8466,4.8465,4.8459,4.8459,4.8458,4.8447,4.8447,4.8447,4.8447,4.843,4.8429,4.8429,4.8428,0,0,4.8427,4.8427,0,0,0,0,0,0,0,0,4.8481,4.8479,4.8467,4.8466,4.8466,4.8455,4.8458,4.8448,4.8447,4.8454,4.8447,4.8447,4.8438,4.8437,4.8434,4.8428,4.8427,4.8427,4.8427,4.8426,4.8426,0,0,0,0,0,0,0,4.8481,4.848,4.8468,4.8467,4.8466,4.8463,4.8461,4.8456,4.8447,4.8453,4.8453,4.8451,4.8437,4.8435,4.8434,4.8427,4.8427,4.8427,4.8426,4.8426,4.8419,4.8419,0,0,0,0,0,0,4.8483,4.8481,4.8468,4.8467,4.8473,4.8463,4.8461,4.8458,4.8447,4.8445,4.8451,4.8451,4.8436,4.8434,4.8433,4.8432,4.8426,4.8426,4.8426,4.8419,4.8419,4.8419,0,0,0,0,0,0,4.8484,4.8482,4.8469,4.8474,4.8472,4.8462,4.846,4.8458,4.8456,4.8445,4.8443,4.845,4.8436,4.8434,4.843,4.8431,4.8426,4.8425,4.8419,4.8419,4.8419,4.843,0,0,0,0,0,0,4.8484,4.8483,4.8483,4.8474,4.8472,4.8466,4.846,4.8458,4.8455,4.8454,4.8444,4.8442,4.8435,4.8431,4.8429,4.843,4.8425,4.8419,4.8419,4.8419,4.8429,4.843,4.8431,0,0,0,0,0,4.8485,4.8486,4.8483,4.8481,4.8472,4.8467,4.8465,4.8458,4.8455,4.8455,4.8448,4.8443,4.8431,4.843,4.8429,4.843,4.8418,4.8419,4.8419,4.8429,4.843,4.8431,0,0,0,0,0,0,4.8494,4.8484,4.8481,4.8479,4.8474,4.8465,4.8464,4.8459,4.8454,4.8453,4.8444,4.8442,4.8439,4.8434,4.8433,4.8429,4.8424,4.8424,4.8432,4.8433,4.8434,4.8435,4.8424,0,0,0,0,0,4.8496,4.8494,4.8485,4.8484,4.8482,4.8473,4.8471,4.8466,4.846,4.8457,4.845,4.8444,4.8439,4.8436,4.8431,4.8429,4.8426,4.8428,4.8429,4.843,4.843,4.8429,4.843,4.842,4.842,4.842,0,0,4.85,4.8494,4.8493,4.8486,4.8481,4.8478,4.8471,4.8468,4.8466,4.8456,4.8452,4.8447,4.844,4.8437,4.8435,4.8432,4.8432,4.8431,4.8432,4.8431,4.8429,4.843,4.8431,4.8421,4.8421,4.8421,0,0,4.8505,4.8501,4.85,4.8495,4.8489,4.8483,4.8483,4.8475,4.8471,4.8467,4.846,4.8457,4.8449,4.8444,4.844,4.8444,4.8438,4.8442,4.8447,4.8446,4.8447,4.8448,4.8449,4.8449,4.8443,4.8443,4.8443,0,4.851,4.8506,4.8499,4.8497,4.8494,4.8486,4.8485,4.8481,4.8472,4.847,4.8468,4.8458,4.8452,4.8448,4.8449,4.8446,4.8445,4.8443,4.8448,4.8448,4.8448,4.845,4.845,4.8443,4.8443,4.8443,4.8443,0,4.8513,4.851,4.851,4.8503,4.85,4.8498,4.849,4.8488,4.8484,4.8478,4.8474,4.8468,4.8461,4.846,4.8455,4.8455,4.8454,4.8449,4.8444,4.845,4.8451,4.8451,4.8444,4.8444,4.8444,4.8443,0,0,4.8522,4.8513,4.8513,4.851,4.8502,4.8499,4.8497,4.8492,4.849,4.8484,4.8482,4.8476,4.8472,4.8468,4.8462,4.8461,4.8465,4.8457,4.8457,4.8459,4.8465,4.8468,4.8468,4.8462,4.8462,4.8462,4.8465,0,4.8526,4.8522,4.8517,4.8514,4.8512,4.8505,4.8503,4.8498,4.8493,4.8489,4.8484,4.8479,4.8475,4.8473,4.8471,4.8465,4.8466,4.8465,4.8459,4.8459,4.8461,4.8469,4.8472,4.8476,4.8466,4.8466,4.8466,0,4.853,4.8526,4.8524,4.8517,4.8516,4.8514,4.8509,4.8506,4.85,4.8496,4.8492,4.8487,4.8483,4.8479,4.8475,4.8474,4.8471,4.8468,4.8468,4.8467,4.8462,4.8468,4.8476,4.8477,4.8466,4.8466,4.8466,0,4.8537,4.8531,4.8529,4.8527,4.8519,4.8518,4.8514,4.8508,4.8506,4.8501,4.8499,4.8494,4.849,4.8486,4.8479,4.8477,4.8475,4.8471,4.8472,4.8472,4.8471,4.8471,4.848,4.847,4.847,4.847,4.847,0,4.8542,4.8541,4.8533,4.8531,4.853,4.8523,4.8522,4.8517,4.8512,4.851,4.8503,4.8501,4.8492,4.8488,4.8483,4.848,4.8478,4.8475,4.8474,4.8476,4.8476,4.8473,4.8473,4.847,4.847,4.847,4.847,0,4.855,4.8544,4.8542,4.8535,4.8533,4.8532,4.8526,4.8524,4.8519,4.8516,4.8515,4.8507,4.8503,4.8495,4.8489,4.8485,4.8483,4.848,4.8485,4.8484,4.8486,4.8486,4.8492,4.8493,4.8483,4.8483,4.8483,0,4.8553,4.8552,4.8545,4.8544,4.8541,4.8538,4.8535,4.8528,4.8526,4.8519,4.8518,4.8514,4.851,4.8503,4.8496,4.8491,4.8488,4.8491,4.8487,4.8489,4.8488,4.8488,4.8488,4.8491,4.8492,4.8492,4.8492,0,4.856,4.8557,4.8554,4.855,4.8547,4.8544,4.854,4.8538,4.8531,4.8528,4.8524,4.8521,4.8514,4.851,4.8504,4.8499,4.8494,4.8493,4.8493,4.8495,4.8498,4.8496,4.8487,4.8493,4.8493,4.8493,4.8493,4.8493,4.8565,4.8564,4.8559,4.8556,4.8552,4.8549,4.8547,4.8543,4.8539,4.8534,4.853,4.8526,4.852,4.8512,4.8508,4.8505,4.8502,4.8502,4.8502,4.8502,4.8503,4.8499,4.8504,4.8503,4.8503,4.8503,4.8503,0,4.8571,4.8568,4.8565,4.856,4.8557,4.8554,4.8549,4.8547,4.8544,4.8539,4.8536,4.8531,4.8527,4.852,4.8515,4.8513,4.8511,4.8512,4.8512,4.8511,4.8505,4.8506,4.8514,4.8514,4.8514,4.8514,4.8514,4.8514,4.8574,4.8572,4.8569,4.8565,4.8562,4.8559,4.8556,4.8553,4.8549,4.8545,4.8541,4.8537,4.8532,4.8526,4.8522,4.852,4.8518,4.8521,4.8518,4.8513,4.8512,4.8511,4.8511,4.852,4.852,4.8524,4.8524,4.8524]}]]